Вернуться в каталог

STARLINK-31736

АктивенСвязьVLEO
NORAD 59547·PAYLOAD·🇺🇸 United States

Запущен Apr 18, 2024 с Cape Canaveral Space Force Station

Loading…

Ближайшие Пролёты (ближайшие 24 часа)

TLE

СвежийSource: CelesTrak SupGP

Эпоха: Sep 15, 2026, 01:49 UTC

1 59547C 24074P   26258.07618056  .00023461  00000+0  84967-3 0  2583
2 59547  43.0036 347.0137 0001956 267.8027 278.9445 15.27569723    13

Отслеживайте STARLINK-31736 в реальном времени с AllMySat

Download on the App Store